Time,TemperatureF,DewpointF,PressureIn,WindDirection,WindDirectionDegrees,WindSpeedMPH,WindSpeedGustMPH,Humidity,HourlyPrecipIn,Conditions,Clouds,dailyrainin,SoftwareType,DateUTC
2013-07-03 00:03:00,61.0,58.4,29.99,NNE,24,0.0,0.0,91,0.00,,---,0.00,VWS V14.00,2013-07-03 05:03:00,
2013-07-03 00:07:00,61.0,58.4,29.99,NNE,24,0.0,0.0,91,0.00,,---,0.00,VWS V14.00,2013-07-03 05:07:00,
2013-07-03 00:12:00,61.0,58.4,29.99,NNE,24,0.0,0.0,91,0.00,,---,0.00,VWS V14.00,2013-07-03 05:12:00,
2013-07-03 00:17:00,61.0,58.4,29.99,NNE,24,0.0,0.0,91,0.00,,---,0.00,VWS V14.00,2013-07-03 05:17:00,
2013-07-03 00:19:00,61.2,58.6,29.99,NNE,24,0.0,0.0,91,0.00,,---,0.00,VWS V14.00,2013-07-03 05:19:00,
2013-07-03 00:25:00,61.2,58.6,29.98,NNE,24,0.0,0.0,91,0.00,,---,0.00,VWS V14.00,2013-07-03 05:25:00,
2013-07-03 00:30:00,61.2,58.6,29.98,NNE,24,0.0,0.0,91,0.00,,---,0.00,VWS V14.00,2013-07-03 05:30:00,
2013-07-03 00:35:00,61.2,58.6,29.98,NNE,24,0.0,0.0,91,0.00,,---,0.00,VWS V14.00,2013-07-03 05:35:00,
2013-07-03 00:40:00,61.2,58.6,29.98,NNE,24,0.0,0.0,91,0.00,,---,0.00,VWS V14.00,2013-07-03 05:40:00,
2013-07-03 00:45:00,61.2,58.6,29.98,NNE,24,0.0,0.0,91,0.00,,---,0.00,VWS V14.00,2013-07-03 05:45:00,
2013-07-03 00:50:00,61.2,58.9,29.98,NNE,24,0.0,0.0,92,0.00,,---,0.00,VWS V14.00,2013-07-03 05:50:00,
2013-07-03 00:54:00,61.2,58.9,29.98,NNE,24,0.0,0.0,92,0.00,,---,0.00,VWS V14.00,2013-07-03 05:54:00,
2013-07-03 00:57:00,61.2,58.9,29.98,NNE,24,0.0,0.0,92,0.00,,---,0.00,VWS V14.00,2013-07-03 05:57:00,
2013-07-03 00:58:00,61.2,58.9,29.98,NNE,24,0.0,0.0,92,0.00,,---,0.00,VWS V14.00,2013-07-03 05:58:00,
2013-07-03 01:03:00,61.2,58.9,29.98,NNE,24,0.0,0.0,92,0.00,,---,0.00,VWS V14.00,2013-07-03 06:03:00,
2013-07-03 01:08:00,61.2,58.9,29.98,NNE,24,0.0,0.0,92,0.00,,---,0.00,VWS V14.00,2013-07-03 06:08:00,
2013-07-03 01:13:00,61.0,58.7,29.98,NNE,24,0.0,0.0,92,0.00,,---,0.00,VWS V14.00,2013-07-03 06:13:00,
2013-07-03 01:17:00,61.0,58.7,29.98,NNE,24,0.0,0.0,92,0.00,,---,0.00,VWS V14.00,2013-07-03 06:17:00,
2013-07-03 01:22:00,61.0,58.7,29.98,NNE,24,0.0,0.0,92,0.00,,---,0.00,VWS V14.00,2013-07-03 06:22:00,
2013-07-03 01:24:00,61.0,58.7,29.97,NNE,24,0.0,0.0,92,0.00,,---,0.00,VWS V14.00,2013-07-03 06:24:00,
2013-07-03 01:28:00,61.0,58.7,29.97,NNE,24,0.0,0.0,92,0.00,,---,0.00,VWS V14.00,2013-07-03 06:28:00,
2013-07-03 01:33:00,60.9,58.6,29.97,NNE,24,0.0,0.0,92,0.00,,---,0.00,VWS V14.00,2013-07-03 06:33:00,
2013-07-03 01:38:00,60.9,58.6,29.97,NNE,24,0.0,0.0,92,0.00,,---,0.00,VWS V14.00,2013-07-03 06:38:00,
2013-07-03 01:43:00,60.9,58.9,29.97,NNE,24,0.0,0.0,93,0.00,,---,0.00,VWS V14.00,2013-07-03 06:43:00,
2013-07-03 01:48:00,60.9,58.9,29.97,NNE,24,0.0,0.0,93,0.00,,---,0.00,VWS V14.00,2013-07-03 06:48:00,
2013-07-03 01:53:00,60.9,58.9,29.98,NNE,24,0.0,0.0,93,0.00,,---,0.00,VWS V14.00,2013-07-03 06:53:00,
2013-07-03 01:57:00,60.9,58.9,29.98,NNE,24,0.0,0.0,93,0.00,,---,0.00,VWS V14.00,2013-07-03 06:57:00,
2013-07-03 02:02:00,60.9,58.9,29.98,NNE,24,0.0,0.0,93,0.00,,---,0.00,VWS V14.00,2013-07-03 07:02:00,
2013-07-03 02:07:00,60.9,58.9,29.98,NNE,24,0.0,0.0,93,0.00,,---,0.00,VWS V14.00,2013-07-03 07:07:00,
2013-07-03 02:13:00,60.9,58.9,29.97,NNE,24,0.0,0.0,93,0.00,,---,0.00,VWS V14.00,2013-07-03 07:13:00,
2013-07-03 02:17:00,60.7,58.7,29.97,NNE,24,0.0,0.0,93,0.00,,---,0.00,VWS V14.00,2013-07-03 07:17:00,
2013-07-03 02:23:00,60.7,58.7,29.97,NNE,24,0.0,0.0,93,0.00,,---,0.00,VWS V14.00,2013-07-03 07:23:00,
2013-07-03 02:28:00,60.7,58.7,29.97,NNE,24,0.0,0.0,93,0.00,,---,0.00,VWS V14.00,2013-07-03 07:28:00,
2013-07-03 02:33:00,60.7,58.7,29.97,NNE,24,0.0,0.0,93,0.00,,---,0.00,VWS V14.00,2013-07-03 07:33:00,
2013-07-03 02:38:00,60.7,58.7,29.97,NNE,24,0.0,0.0,93,0.00,,---,0.00,VWS V14.00,2013-07-03 07:38:00,
2013-07-03 02:44:00,60.9,58.9,29.97,NNE,24,0.0,0.0,93,0.00,,---,0.00,VWS V14.00,2013-07-03 07:44:00,
2013-07-03 02:49:00,60.9,58.9,29.97,NNE,24,0.0,0.0,93,0.00,,---,0.00,VWS V14.00,2013-07-03 07:49:00,
2013-07-03 02:50:00,60.9,58.9,29.97,NNE,24,0.0,0.0,93,0.00,,---,0.00,VWS V14.00,2013-07-03 07:50:00,
2013-07-03 02:56:00,60.9,58.9,29.97,NNE,24,0.0,0.0,93,0.00,,---,0.00,VWS V14.00,2013-07-03 07:56:00,
2013-07-03 03:01:00,60.9,58.9,29.97,NNE,24,0.0,0.0,93,0.00,,---,0.00,VWS V14.00,2013-07-03 08:01:00,
2013-07-03 03:06:00,60.7,58.7,29.97,NNE,24,0.0,0.0,93,0.00,,---,0.00,VWS V14.00,2013-07-03 08:06:00,
2013-07-03 03:09:00,60.7,58.7,29.96,NNE,24,0.0,0.0,93,0.00,,---,0.00,VWS V14.00,2013-07-03 08:09:00,
2013-07-03 03:14:00,60.7,59.0,29.96,NNE,24,0.0,0.0,94,0.00,,---,0.00,VWS V14.00,2013-07-03 08:14:00,
2013-07-03 03:16:00,60.9,58.9,29.96,NNE,24,0.0,0.0,93,0.00,,---,0.00,VWS V14.00,2013-07-03 08:16:00,
2013-07-03 03:18:00,60.9,59.2,29.96,NNE,24,0.0,0.0,94,0.00,,---,0.00,VWS V14.00,2013-07-03 08:18:00,
2013-07-03 03:24:00,60.7,59.0,29.96,NNE,24,0.0,0.0,94,0.00,,---,0.00,VWS V14.00,2013-07-03 08:24:00,
2013-07-03 03:29:00,60.7,59.0,29.96,NNE,24,0.0,0.0,94,0.00,,---,0.00,VWS V14.00,2013-07-03 08:29:00,
2013-07-03 03:34:00,60.7,59.0,29.96,NNE,24,0.0,0.0,94,0.00,,---,0.00,VWS V14.00,2013-07-03 08:34:00,
2013-07-03 03:39:00,60.7,59.0,29.97,NNE,24,0.0,0.0,94,0.00,,---,0.00,VWS V14.00,2013-07-03 08:39:00,
2013-07-03 03:40:00,60.7,59.0,29.97,NNE,24,0.0,0.0,94,0.00,,---,0.00,VWS V14.00,2013-07-03 08:40:00,
2013-07-03 03:45:00,60.7,59.0,29.97,NNE,24,0.0,0.0,94,0.00,,---,0.00,VWS V14.00,2013-07-03 08:45:00,
2013-07-03 03:50:00,60.7,59.0,29.97,NNE,24,0.0,0.0,94,0.00,,---,0.00,VWS V14.00,2013-07-03 08:50:00,
2013-07-03 03:55:00,60.7,59.0,29.97,NNE,24,0.0,0.0,94,0.00,,---,0.00,VWS V14.00,2013-07-03 08:55:00,
2013-07-03 03:57:00,60.7,59.0,29.97,NNE,24,0.0,0.0,94,0.00,,---,0.00,VWS V14.00,2013-07-03 08:57:00,
2013-07-03 04:02:00,60.5,58.8,29.97,NNE,24,0.0,0.0,94,0.00,,---,0.00,VWS V14.00,2013-07-03 09:02:00,
2013-07-03 04:07:00,60.5,58.8,29.97,NNE,24,0.0,0.0,94,0.00,,---,0.00,VWS V14.00,2013-07-03 09:07:00,
2013-07-03 04:13:00,60.5,58.8,29.97,NNE,24,0.0,0.0,94,0.00,,---,0.00,VWS V14.00,2013-07-03 09:13:00,
2013-07-03 04:18:00,60.5,58.8,29.97,NNE,24,0.0,0.0,94,0.00,,---,0.00,VWS V14.00,2013-07-03 09:18:00,
2013-07-03 04:23:00,60.5,58.8,29.97,NNE,24,0.0,0.0,94,0.00,,---,0.00,VWS V14.00,2013-07-03 09:23:00,
2013-07-03 04:28:00,60.5,58.8,29.97,NNE,24,0.0,0.0,94,0.00,,---,0.00,VWS V14.00,2013-07-03 09:28:00,
2013-07-03 04:33:00,60.5,58.8,29.97,NNE,24,0.0,0.0,94,0.00,,---,0.00,VWS V14.00,2013-07-03 09:33:00,
2013-07-03 04:38:00,60.5,58.8,29.97,NNE,24,0.0,0.0,94,0.00,,---,0.00,VWS V14.00,2013-07-03 09:38:00,
2013-07-03 04:41:00,60.5,58.8,29.97,NNE,24,0.0,0.0,94,0.00,,---,0.00,VWS V14.00,2013-07-03 09:41:00,
2013-07-03 04:46:00,60.5,58.8,29.97,NNE,24,0.0,0.0,94,0.00,,---,0.00,VWS V14.00,2013-07-03 09:46:00,
2013-07-03 04:49:00,60.5,58.8,29.97,NNE,24,0.0,0.0,94,0.00,,---,0.00,VWS V14.00,2013-07-03 09:49:00,
2013-07-03 04:50:00,60.5,58.8,29.97,NNE,24,0.0,0.0,94,0.00,,---,0.00,VWS V14.00,2013-07-03 09:50:00,
2013-07-03 04:55:00,60.5,58.8,29.97,NNE,24,0.0,0.0,94,0.00,,---,0.00,VWS V14.00,2013-07-03 09:55:00,
2013-07-03 05:00:00,60.5,58.8,29.97,NNE,24,0.0,0.0,94,0.00,,---,0.00,VWS V14.00,2013-07-03 10:00:00,
2013-07-03 05:05:00,60.5,58.8,29.97,NNE,24,0.0,0.0,94,0.00,,---,0.00,VWS V14.00,2013-07-03 10:05:00,
2013-07-03 05:06:00,60.5,58.8,29.97,NNE,24,0.0,0.0,94,0.00,,---,0.00,VWS V14.00,2013-07-03 10:06:00,
2013-07-03 05:11:00,60.5,58.8,29.98,NNE,24,0.0,0.0,94,0.00,,---,0.00,VWS V14.00,2013-07-03 10:11:00,
2013-07-03 05:17:00,60.5,58.8,29.98,NNE,24,0.0,0.0,94,0.00,,---,0.00,VWS V14.00,2013-07-03 10:17:00,
2013-07-03 05:22:00,60.5,58.8,29.98,NNE,24,0.0,0.0,94,0.00,,---,0.00,VWS V14.00,2013-07-03 10:22:00,
2013-07-03 05:28:00,60.5,58.8,29.98,NNE,24,0.0,0.0,94,0.00,,---,0.00,VWS V14.00,2013-07-03 10:28:00,
2013-07-03 05:31:00,60.5,58.8,29.98,NNE,24,0.0,0.0,94,0.00,,---,0.00,VWS V14.00,2013-07-03 10:31:00,
2013-07-03 05:36:00,60.5,58.8,29.98,NNE,24,0.0,0.0,94,0.00,,---,0.00,VWS V14.00,2013-07-03 10:36:00,
2013-07-03 05:41:00,60.5,58.8,29.99,NNE,24,0.0,0.0,94,0.00,,---,0.00,VWS V14.00,2013-07-03 10:41:00,
2013-07-03 05:47:00,60.5,58.8,29.99,NNE,24,0.0,0.0,94,0.00,,---,0.00,VWS V14.00,2013-07-03 10:47:00,
2013-07-03 05:49:00,60.5,58.8,29.99,NNE,24,0.0,0.0,94,0.00,,---,0.00,VWS V14.00,2013-07-03 10:49:00,
2013-07-03 05:54:00,60.5,58.8,29.99,NNE,24,0.0,0.0,94,0.00,,---,0.00,VWS V14.00,2013-07-03 10:54:00,
2013-07-03 05:55:00,60.5,58.8,29.99,NNE,24,0.0,0.0,94,0.00,,---,0.00,VWS V14.00,2013-07-03 10:55:00,
2013-07-03 05:57:00,60.7,59.0,29.99,NNE,24,0.0,0.0,94,0.00,,---,0.00,VWS V14.00,2013-07-03 10:57:00,
2013-07-03 06:03:00,60.7,59.0,29.99,NNE,24,0.0,0.0,94,0.00,,---,0.00,VWS V14.00,2013-07-03 11:03:00,
2013-07-03 06:08:00,60.7,59.0,29.99,NNE,24,0.0,0.0,94,0.00,,---,0.00,VWS V14.00,2013-07-03 11:08:00,
2013-07-03 06:09:00,60.7,59.0,29.99,NNE,24,0.0,0.0,94,0.00,,---,0.00,VWS V14.00,2013-07-03 11:09:00,
2013-07-03 06:11:00,60.7,59.0,29.99,NNE,24,0.0,0.0,94,0.00,,---,0.00,VWS V14.00,2013-07-03 11:11:00,
2013-07-03 06:16:00,60.9,59.2,29.99,NNE,24,0.0,0.0,94,0.00,,---,0.00,VWS V14.00,2013-07-03 11:16:00,
2013-07-03 06:19:00,60.9,59.2,29.99,NNE,24,0.0,0.0,94,0.00,,---,0.00,VWS V14.00,2013-07-03 11:19:00,
2013-07-03 06:24:00,60.9,59.2,29.99,NNE,24,0.0,0.0,94,0.00,,---,0.00,VWS V14.00,2013-07-03 11:24:00,
2013-07-03 06:25:00,60.9,59.2,29.99,NNE,24,0.0,0.0,94,0.00,,---,0.00,VWS V14.00,2013-07-03 11:25:00,
2013-07-03 06:30:00,61.0,59.3,29.99,NNE,24,0.0,0.0,94,0.00,,---,0.00,VWS V14.00,2013-07-03 11:30:00,
2013-07-03 06:35:00,61.0,59.3,29.99,NNE,24,0.0,0.0,94,0.00,,---,0.00,VWS V14.00,2013-07-03 11:35:00,
2013-07-03 06:41:00,61.0,59.3,29.99,NNE,24,0.0,0.0,94,0.00,,---,0.00,VWS V14.00,2013-07-03 11:41:00,
2013-07-03 06:45:00,61.0,59.3,29.99,NNE,24,0.0,0.0,94,0.00,,---,0.00,VWS V14.00,2013-07-03 11:45:00,
2013-07-03 06:50:00,61.2,59.5,29.99,NNE,24,0.0,0.0,94,0.00,,---,0.00,VWS V14.00,2013-07-03 11:50:00,
2013-07-03 06:55:00,61.2,59.5,29.99,NNE,24,0.0,0.0,94,0.00,,---,0.00,VWS V14.00,2013-07-03 11:55:00,
2013-07-03 07:00:00,61.2,59.2,29.99,NNE,24,0.0,0.0,93,0.00,,---,0.00,VWS V14.00,2013-07-03 12:00:00,
2013-07-03 07:01:00,61.2,59.2,29.99,NNE,24,0.0,0.0,93,0.00,,---,0.00,VWS V14.00,2013-07-03 12:01:00,
2013-07-03 07:03:00,61.0,59.0,29.99,NNE,24,0.0,0.0,93,0.00,,---,0.00,VWS V14.00,2013-07-03 12:03:00,
2013-07-03 07:08:00,61.0,59.0,30.00,NNE,24,0.0,0.0,93,0.00,,---,0.00,VWS V14.00,2013-07-03 12:08:00,
2013-07-03 07:13:00,61.0,59.0,30.00,NNE,24,0.0,0.0,93,0.00,,---,0.00,VWS V14.00,2013-07-03 12:13:00,
2013-07-03 07:16:00,61.0,59.0,30.00,NNE,24,0.0,0.0,93,0.00,,---,0.00,VWS V14.00,2013-07-03 12:16:00,
2013-07-03 07:21:00,61.2,59.2,30.00,NNE,24,0.0,0.0,93,0.00,,---,0.00,VWS V14.00,2013-07-03 12:21:00,
2013-07-03 07:26:00,61.2,59.2,30.00,NNE,24,0.0,0.0,93,0.00,,---,0.00,VWS V14.00,2013-07-03 12:26:00,
2013-07-03 07:31:00,61.2,59.2,30.00,NNE,24,0.0,0.0,93,0.00,,---,0.00,VWS V14.00,2013-07-03 12:31:00,
2013-07-03 07:37:00,61.2,59.2,30.00,NNE,24,0.0,0.0,93,0.00,,---,0.00,VWS V14.00,2013-07-03 12:37:00,
2013-07-03 07:42:00,61.3,59.3,30.01,NNE,24,0.0,0.0,93,0.00,,---,0.00,VWS V14.00,2013-07-03 12:42:00,
2013-07-03 07:46:00,61.3,59.3,30.01,NNE,24,0.0,0.0,93,0.00,,---,0.00,VWS V14.00,2013-07-03 12:46:00,
2013-07-03 07:51:00,61.3,59.3,30.01,NNE,24,0.0,0.0,93,0.00,,---,0.00,VWS V14.00,2013-07-03 12:51:00,
2013-07-03 07:56:00,61.5,59.5,30.01,NNE,24,0.0,0.0,93,0.00,,---,0.00,VWS V14.00,2013-07-03 12:56:00,
2013-07-03 08:02:00,61.6,59.3,30.01,NNE,24,0.0,0.0,92,0.00,,---,0.00,VWS V14.00,2013-07-03 13:02:00,
2013-07-03 08:07:00,61.6,59.3,30.01,NNE,24,0.0,0.0,92,0.00,,---,0.00,VWS V14.00,2013-07-03 13:07:00,
2013-07-03 08:12:00,61.6,59.3,30.02,NNE,24,0.0,0.0,92,0.00,,---,0.00,VWS V14.00,2013-07-03 13:12:00,
2013-07-03 08:17:00,61.8,59.5,30.02,NNE,24,0.0,0.0,92,0.00,,---,0.00,VWS V14.00,2013-07-03 13:17:00,
2013-07-03 08:22:00,61.8,59.5,30.02,NNE,24,0.0,0.0,92,0.00,,---,0.00,VWS V14.00,2013-07-03 13:22:00,
2013-07-03 08:25:00,62.0,59.7,30.02,NNE,24,0.0,0.0,92,0.00,,---,0.00,VWS V14.00,2013-07-03 13:25:00,
2013-07-03 08:26:00,62.0,59.7,30.02,NNE,24,0.0,0.0,92,0.00,,---,0.00,VWS V14.00,2013-07-03 13:26:00,
2013-07-03 08:32:00,62.3,60.0,30.02,NNE,24,0.0,0.0,92,0.00,,---,0.00,VWS V14.00,2013-07-03 13:32:00,
2013-07-03 08:37:00,62.3,59.6,30.02,NNE,24,0.0,0.0,91,0.00,,---,0.00,VWS V14.00,2013-07-03 13:37:00,
2013-07-03 08:40:00,62.3,59.6,30.02,NNE,24,0.0,0.0,91,0.00,,---,0.00,VWS V14.00,2013-07-03 13:40:00,
2013-07-03 08:46:00,62.4,59.7,30.02,NNE,24,0.0,0.0,91,0.00,,---,0.00,VWS V14.00,2013-07-03 13:46:00,
2013-07-03 08:51:00,62.6,59.6,30.02,NNE,24,0.0,0.0,90,0.00,,---,0.00,VWS V14.00,2013-07-03 13:51:00,
2013-07-03 08:57:00,62.7,59.7,30.02,NNE,24,0.0,0.0,90,0.00,,---,0.00,VWS V14.00,2013-07-03 13:57:00,
2013-07-03 09:02:00,62.9,59.6,30.02,NNE,24,0.0,0.0,89,0.00,,---,0.00,VWS V14.00,2013-07-03 14:02:00,
2013-07-03 09:06:00,62.9,59.3,30.02,NNE,24,0.0,0.0,88,0.00,,---,0.00,VWS V14.00,2013-07-03 14:06:00,
2013-07-03 09:10:00,62.9,59.0,30.03,NNE,24,1.0,4.0,87,0.00,,---,0.00,VWS V14.00,2013-07-03 14:10:00,
2013-07-03 09:15:00,62.9,59.0,30.03,NNE,24,4.0,4.0,87,0.00,,---,0.00,VWS V14.00,2013-07-03 14:15:00,
2013-07-03 09:17:00,62.9,58.7,30.03,NNE,24,1.0,2.0,86,0.00,,---,0.00,VWS V14.00,2013-07-03 14:17:00,
2013-07-03 09:23:00,63.2,59.0,30.02,NNE,24,0.0,2.0,86,0.00,,---,0.00,VWS V14.00,2013-07-03 14:23:00,
2013-07-03 09:28:00,63.4,58.8,30.02,NNE,24,0.0,0.0,85,0.00,,---,0.00,VWS V14.00,2013-07-03 14:28:00,
2013-07-03 09:30:00,63.5,58.9,30.02,NNE,24,0.0,0.0,85,0.00,,---,0.00,VWS V14.00,2013-07-03 14:30:00,
2013-07-03 09:35:00,63.9,59.0,30.02,NNE,24,2.0,4.0,84,0.00,,---,0.00,VWS V14.00,2013-07-03 14:35:00,
2013-07-03 09:38:00,63.9,58.6,30.02,NNE,24,3.0,3.0,83,0.00,,---,0.00,VWS V14.00,2013-07-03 14:38:00,
2013-07-03 09:41:00,64.0,58.7,30.02,NNE,24,0.0,0.0,83,0.00,,---,0.00,VWS V14.00,2013-07-03 14:41:00,
2013-07-03 09:46:00,64.2,58.6,30.02,NNE,24,0.0,0.0,82,0.00,,---,0.00,VWS V14.00,2013-07-03 14:46:00,
2013-07-03 09:52:00,64.5,59.2,30.02,NNE,24,0.0,0.0,83,0.00,,---,0.00,VWS V14.00,2013-07-03 14:52:00,
2013-07-03 09:58:00,64.8,59.2,30.02,NNE,24,0.0,1.0,82,0.00,,---,0.00,VWS V14.00,2013-07-03 14:58:00,
2013-07-03 10:03:00,65.0,59.0,30.02,NNE,24,0.0,0.0,81,0.00,,---,0.00,VWS V14.00,2013-07-03 15:03:00,
2013-07-03 10:08:00,65.5,59.5,30.03,NNE,24,0.0,0.0,81,0.00,,---,0.00,VWS V14.00,2013-07-03 15:08:00,
2013-07-03 10:13:00,65.5,59.2,30.03,NNE,24,0.0,0.0,80,0.00,,---,0.00,VWS V14.00,2013-07-03 15:13:00,
2013-07-03 10:16:00,65.5,59.2,30.03,NNE,24,0.0,2.0,80,0.00,,---,0.00,VWS V14.00,2013-07-03 15:16:00,
2013-07-03 10:21:00,65.6,58.9,30.03,NNE,24,0.0,1.0,79,0.00,,---,0.00,VWS V14.00,2013-07-03 15:21:00,
2013-07-03 10:26:00,65.6,59.3,30.03,NNE,24,1.0,3.0,80,0.00,,---,0.00,VWS V14.00,2013-07-03 15:26:00,
2013-07-03 10:29:00,65.8,59.5,30.03,NNE,24,0.0,0.0,80,0.00,,---,0.00,VWS V14.00,2013-07-03 15:29:00,
2013-07-03 10:34:00,66.1,59.4,30.03,NNE,24,0.0,2.0,79,0.00,,---,0.00,VWS V14.00,2013-07-03 15:34:00,
2013-07-03 10:39:00,66.3,59.2,30.03,NNE,24,0.0,2.0,78,0.00,,---,0.00,VWS V14.00,2013-07-03 15:39:00,
2013-07-03 10:40:00,66.3,59.2,30.03,NNE,24,0.0,1.0,78,0.00,,---,0.00,VWS V14.00,2013-07-03 15:40:00,
2013-07-03 10:46:00,66.6,59.9,30.03,NNE,23,2.0,3.0,79,0.00,,---,0.00,VWS V14.00,2013-07-03 15:46:00,
2013-07-03 10:51:00,66.6,59.5,30.03,NNE,22,0.0,1.0,78,0.00,,---,0.00,VWS V14.00,2013-07-03 15:51:00,
2013-07-03 10:52:00,66.6,59.5,30.03,NNE,22,1.0,3.0,78,0.00,,---,0.00,VWS V14.00,2013-07-03 15:52:00,
2013-07-03 10:53:00,66.6,59.5,30.03,NNE,22,3.0,5.0,78,0.00,,---,0.00,VWS V14.00,2013-07-03 15:53:00,
2013-07-03 10:58:00,66.6,59.5,30.03,NNE,20,0.0,1.0,78,0.00,,---,0.00,VWS V14.00,2013-07-03 15:58:00,
2013-07-03 11:03:00,66.9,59.8,30.03,NNE,19,1.0,3.0,78,0.00,,---,0.00,VWS V14.00,2013-07-03 16:03:00,
2013-07-03 11:08:00,66.8,59.7,30.03,NNE,19,0.0,0.0,78,0.00,,---,0.00,VWS V14.00,2013-07-03 16:08:00,
2013-07-03 11:13:00,67.1,59.7,30.03,NNE,19,0.0,2.0,77,0.00,,---,0.00,VWS V14.00,2013-07-03 16:13:00,
2013-07-03 11:18:00,67.3,60.6,30.03,NNE,19,0.0,0.0,79,0.00,,---,0.00,VWS V14.00,2013-07-03 16:18:00,
2013-07-03 11:23:00,67.4,59.6,30.03,NNE,19,0.0,0.0,76,0.00,,---,0.00,VWS V14.00,2013-07-03 16:23:00,
2013-07-03 11:28:00,67.6,60.1,30.03,NNE,19,0.0,0.0,77,0.00,,---,0.00,VWS V14.00,2013-07-03 16:28:00,
2013-07-03 11:33:00,67.8,60.3,30.03,NNE,19,0.0,0.0,77,0.00,,---,0.00,VWS V14.00,2013-07-03 16:33:00,
2013-07-03 11:38:00,67.9,59.3,30.03,NNE,17,0.0,2.0,74,0.00,,---,0.00,VWS V14.00,2013-07-03 16:38:00,
2013-07-03 11:44:00,68.1,59.5,30.03,NNE,17,0.0,0.0,74,0.00,,---,0.00,VWS V14.00,2013-07-03 16:44:00,
2013-07-03 11:49:00,68.4,59.4,30.03,NNE,17,1.0,4.0,73,0.00,,---,0.00,VWS V14.00,2013-07-03 16:49:00,
2013-07-03 11:54:00,68.6,60.0,30.03,NNE,17,0.0,1.0,74,0.00,,---,0.00,VWS V14.00,2013-07-03 16:54:00,
2013-07-03 11:59:00,69.1,60.8,30.03,NNE,17,0.0,2.0,75,0.00,,---,0.00,VWS V14.00,2013-07-03 16:59:00,
2013-07-03 12:04:00,69.9,61.2,30.03,NNE,16,0.0,0.0,74,0.00,,---,0.00,VWS V14.00,2013-07-03 17:04:00,
2013-07-03 12:09:00,70.1,60.3,30.02,NNE,16,0.0,2.0,71,0.00,,---,0.00,VWS V14.00,2013-07-03 17:09:00,
2013-07-03 12:15:00,70.1,61.4,30.02,NNE,15,0.0,1.0,74,0.00,,---,0.00,VWS V14.00,2013-07-03 17:15:00,
2013-07-03 12:20:00,70.1,60.3,30.02,NNE,15,0.0,1.0,71,0.00,,---,0.00,VWS V14.00,2013-07-03 17:20:00,
2013-07-03 12:25:00,69.8,60.0,30.03,NNE,15,1.0,3.0,71,0.00,,---,0.00,VWS V14.00,2013-07-03 17:25:00,
2013-07-03 12:30:00,69.8,60.4,30.03,NNE,15,0.0,0.0,72,0.00,,---,0.00,VWS V14.00,2013-07-03 17:30:00,
2013-07-03 12:35:00,70.1,61.0,30.03,NNE,15,0.0,1.0,73,0.00,,---,0.00,VWS V14.00,2013-07-03 17:35:00,
2013-07-03 12:40:00,70.8,62.1,30.02,NNE,15,0.0,0.0,74,0.00,,---,0.00,VWS V14.00,2013-07-03 17:40:00,
2013-07-03 12:45:00,71.1,62.0,30.02,NNE,15,0.0,0.0,73,0.00,,---,0.00,VWS V14.00,2013-07-03 17:45:00,
2013-07-03 12:50:00,71.5,61.2,30.02,NNE,15,0.0,0.0,70,0.00,,---,0.00,VWS V14.00,2013-07-03 17:50:00,
2013-07-03 12:55:00,71.6,61.7,30.02,North,5,0.0,1.0,71,0.00,,---,0.00,VWS V14.00,2013-07-03 17:55:00,
2013-07-03 13:01:00,71.5,60.8,30.02,North,5,0.0,0.0,69,0.00,,---,0.00,VWS V14.00,2013-07-03 18:01:00,
2013-07-03 13:06:00,71.3,60.2,30.02,North,5,1.0,1.0,68,0.00,,---,0.00,VWS V14.00,2013-07-03 18:06:00,
2013-07-03 13:11:00,71.6,61.7,30.02,North,5,3.0,4.0,71,0.00,,---,0.00,VWS V14.00,2013-07-03 18:11:00,
2013-07-03 13:17:00,71.6,60.5,30.02,North,5,0.0,3.0,68,0.00,,---,0.00,VWS V14.00,2013-07-03 18:17:00,
2013-07-03 13:22:00,71.5,60.4,30.02,North,5,0.0,1.0,68,0.00,,---,0.00,VWS V14.00,2013-07-03 18:22:00,
2013-07-03 13:27:00,71.3,59.4,30.02,North,5,0.0,0.0,66,0.00,,---,0.00,VWS V14.00,2013-07-03 18:27:00,
2013-07-03 13:32:00,71.3,60.2,30.02,North,5,0.0,0.0,68,0.00,,---,0.00,VWS V14.00,2013-07-03 18:32:00,
2013-07-03 13:37:00,71.8,61.5,30.02,North,5,0.0,0.0,70,0.00,,---,0.00,VWS V14.00,2013-07-03 18:37:00,
2013-07-03 13:42:00,72.3,61.2,30.02,North,5,0.0,0.0,68,0.00,,---,0.00,VWS V14.00,2013-07-03 18:42:00,
2013-07-03 13:47:00,72.5,60.9,30.02,North,5,0.0,1.0,67,0.00,,---,0.00,VWS V14.00,2013-07-03 18:47:00,
2013-07-03 13:53:00,73.2,62.8,30.01,North,5,0.0,0.0,70,0.00,,---,0.00,VWS V14.00,2013-07-03 18:53:00,
2013-07-03 13:58:00,73.7,61.7,30.01,North,5,0.0,2.0,66,0.00,,---,0.00,VWS V14.00,2013-07-03 18:58:00,
2013-07-03 14:03:00,73.9,59.6,30.01,North,5,0.0,0.0,61,0.00,,---,0.00,VWS V14.00,2013-07-03 19:03:00,
2013-07-03 14:08:00,73.5,60.2,30.01,North,5,0.0,1.0,63,0.00,,---,0.00,VWS V14.00,2013-07-03 19:08:00,
2013-07-03 14:13:00,73.7,58.5,30.01,North,5,0.0,2.0,59,0.00,,---,0.00,VWS V14.00,2013-07-03 19:13:00,
2013-07-03 14:19:00,73.5,58.8,30.01,North,5,0.0,1.0,60,0.00,,---,0.00,VWS V14.00,2013-07-03 19:19:00,
2013-07-03 14:24:00,73.9,57.7,30.01,North,5,2.0,2.0,57,0.00,,---,0.00,VWS V14.00,2013-07-03 19:24:00,
2013-07-03 14:29:00,73.7,57.0,30.01,North,5,0.0,0.0,56,0.00,,---,0.00,VWS V14.00,2013-07-03 19:29:00,
2013-07-03 14:34:00,74.2,58.0,30.01,North,5,0.0,0.0,57,0.00,,---,0.00,VWS V14.00,2013-07-03 19:34:00,
2013-07-03 14:39:00,74.7,59.4,30.01,North,5,0.0,3.0,59,0.00,,---,0.00,VWS V14.00,2013-07-03 19:39:00,
2013-07-03 14:44:00,74.6,57.9,30.01,North,5,0.0,1.0,56,0.00,,---,0.00,VWS V14.00,2013-07-03 19:44:00,
2013-07-03 14:49:00,74.6,58.4,30.01,North,5,0.0,0.0,57,0.00,,---,0.00,VWS V14.00,2013-07-03 19:49:00,
2013-07-03 14:54:00,74.9,59.6,30.00,North,5,0.0,0.0,59,0.00,,---,0.00,VWS V14.00,2013-07-03 19:54:00,
2013-07-03 14:59:00,75.3,57.5,30.00,North,360,0.0,1.0,54,0.00,,---,0.00,VWS V14.00,2013-07-03 19:59:00,
2013-07-03 15:04:00,75.4,56.6,30.00,North,360,2.0,3.0,52,0.00,,---,0.00,VWS V14.00,2013-07-03 20:04:00,
2013-07-03 15:09:00,75.6,57.3,30.00,North,355,0.0,5.0,53,0.00,,---,0.00,VWS V14.00,2013-07-03 20:09:00,
2013-07-03 15:14:00,75.6,57.3,30.00,North,349,1.0,1.0,53,0.00,,---,0.00,VWS V14.00,2013-07-03 20:14:00,
2013-07-03 15:20:00,75.4,56.6,30.00,North,349,0.0,2.0,52,0.00,,---,0.00,VWS V14.00,2013-07-03 20:20:00,
2013-07-03 15:25:00,75.1,55.2,30.00,North,349,1.0,2.0,50,0.00,,---,0.00,VWS V14.00,2013-07-03 20:25:00,
2013-07-03 15:30:00,74.2,53.8,30.00,North,349,0.0,0.0,49,0.00,,---,0.00,VWS V14.00,2013-07-03 20:30:00,
2013-07-03 15:36:00,74.2,56.5,30.00,North,349,0.0,1.0,54,0.00,,---,0.00,VWS V14.00,2013-07-03 20:36:00,
2013-07-03 15:41:00,74.7,56.5,30.00,North,349,0.0,4.0,53,0.00,,---,0.00,VWS V14.00,2013-07-03 20:41:00,
2013-07-03 15:46:00,75.3,55.4,30.00,North,349,0.0,4.0,50,0.00,,---,0.00,VWS V14.00,2013-07-03 20:46:00,
2013-07-03 15:52:00,75.8,58.0,30.00,North,349,0.0,3.0,54,0.00,,---,0.00,VWS V14.00,2013-07-03 20:52:00,
2013-07-03 15:57:00,76.0,55.5,30.00,North,349,0.0,1.0,49,0.00,,---,0.00,VWS V14.00,2013-07-03 20:57:00,
2013-07-03 16:02:00,76.0,56.0,30.00,NNW,348,0.0,2.0,50,0.00,,---,0.00,VWS V14.00,2013-07-03 21:02:00,
2013-07-03 16:07:00,76.0,54.9,30.00,NNW,348,0.0,0.0,48,0.00,,---,0.00,VWS V14.00,2013-07-03 21:07:00,
2013-07-03 16:12:00,76.5,55.4,30.00,NNW,348,1.0,1.0,48,0.00,,---,0.00,VWS V14.00,2013-07-03 21:12:00,
2013-07-03 16:17:00,76.7,55.0,30.00,NNW,346,4.0,5.0,47,0.00,,---,0.00,VWS V14.00,2013-07-03 21:17:00,
2013-07-03 16:22:00,76.5,54.2,30.00,NNW,339,2.0,5.0,46,0.00,,---,0.00,VWS V14.00,2013-07-03 21:22:00,
2013-07-03 16:27:00,76.3,54.6,30.00,NNW,336,0.0,7.0,47,0.00,,---,0.00,VWS V14.00,2013-07-03 21:27:00,
2013-07-03 16:32:00,76.3,52.8,30.00,NNW,336,0.0,3.0,44,0.00,,---,0.00,VWS V14.00,2013-07-03 21:32:00,
2013-07-03 16:37:00,76.5,54.8,30.00,NNW,336,0.0,0.0,47,0.00,,---,0.00,VWS V14.00,2013-07-03 21:37:00,
2013-07-03 16:42:00,76.8,55.1,30.00,NNW,336,0.0,1.0,47,0.00,,---,0.00,VWS V14.00,2013-07-03 21:42:00,
2013-07-03 16:48:00,77.2,54.2,30.00,NNW,336,0.0,1.0,45,0.00,,---,0.00,VWS V14.00,2013-07-03 21:48:00,
2013-07-03 16:53:00,77.0,51.5,30.00,NNW,327,2.0,5.0,41,0.00,,---,0.00,VWS V14.00,2013-07-03 21:53:00,
2013-07-03 16:58:00,76.8,53.3,30.00,NW,325,1.0,5.0,44,0.00,,---,0.00,VWS V14.00,2013-07-03 21:58:00,
2013-07-03 17:03:00,76.8,52.0,30.00,NW,323,0.0,2.0,42,0.00,,---,0.00,VWS V14.00,2013-07-03 22:03:00,
2013-07-03 17:08:00,77.0,52.2,29.99,NW,323,1.0,2.0,42,0.00,,---,0.00,VWS V14.00,2013-07-03 22:08:00,
2013-07-03 17:13:00,77.2,54.2,29.99,NW,323,0.0,3.0,45,0.00,,---,0.00,VWS V14.00,2013-07-03 22:13:00,
2013-07-03 17:18:00,77.2,51.0,29.99,NW,323,0.0,1.0,40,0.00,,---,0.00,VWS V14.00,2013-07-03 22:18:00,
2013-07-03 17:23:00,77.2,51.0,29.98,NW,317,4.0,9.0,40,0.00,,---,0.00,VWS V14.00,2013-07-03 22:23:00,
2013-07-03 17:29:00,77.2,49.7,29.98,NW,310,5.0,7.0,38,0.00,,---,0.00,VWS V14.00,2013-07-03 22:29:00,
2013-07-03 17:34:00,77.0,52.2,29.98,WNW,300,5.0,5.0,42,0.00,,---,0.00,VWS V14.00,2013-07-03 22:34:00,
2013-07-03 17:39:00,76.8,50.7,29.98,WNW,300,1.0,6.0,40,0.00,,---,0.00,VWS V14.00,2013-07-03 22:39:00,
2013-07-03 17:44:00,76.7,51.9,29.98,WNW,300,0.0,3.0,42,0.00,,---,0.00,VWS V14.00,2013-07-03 22:44:00,
2013-07-03 17:49:00,76.7,49.9,29.98,WNW,300,1.0,4.0,39,0.00,,---,0.00,VWS V14.00,2013-07-03 22:49:00,
2013-07-03 17:54:00,76.7,51.9,29.98,WNW,300,0.0,0.0,42,0.00,,---,0.00,VWS V14.00,2013-07-03 22:54:00,
2013-07-03 18:00:00,76.8,52.6,29.98,WNW,300,0.0,0.0,43,0.00,,---,0.00,VWS V14.00,2013-07-03 23:00:00,
2013-07-03 18:05:00,77.0,53.4,29.98,WNW,300,0.0,0.0,44,0.00,,---,0.00,VWS V14.00,2013-07-03 23:05:00,
2013-07-03 18:10:00,76.8,52.0,29.98,WNW,300,1.0,1.0,42,0.00,,---,0.00,VWS V14.00,2013-07-03 23:10:00,
2013-07-03 18:15:00,76.5,50.4,29.98,WNW,300,0.0,2.0,40,0.00,,---,0.00,VWS V14.00,2013-07-03 23:15:00,
2013-07-03 18:21:00,76.3,49.5,29.98,WNW,300,0.0,0.0,39,0.00,,---,0.00,VWS V14.00,2013-07-03 23:21:00,
2013-07-03 18:26:00,76.3,49.5,29.98,WNW,300,0.0,0.0,39,0.00,,---,0.00,VWS V14.00,2013-07-03 23:26:00,
2013-07-03 18:31:00,76.3,50.2,29.98,WNW,300,0.0,0.0,40,0.00,,---,0.00,VWS V14.00,2013-07-03 23:31:00,
2013-07-03 18:36:00,76.5,49.7,29.98,WNW,300,0.0,0.0,39,0.00,,---,0.00,VWS V14.00,2013-07-03 23:36:00,
2013-07-03 18:42:00,76.3,53.4,29.98,WNW,300,5.0,5.0,45,0.00,,---,0.00,VWS V14.00,2013-07-03 23:42:00,
2013-07-03 18:47:00,75.8,53.6,29.98,WNW,300,0.0,0.0,46,0.00,,---,0.00,VWS V14.00,2013-07-03 23:47:00,
2013-07-03 18:50:00,76.0,53.2,29.98,WNW,300,0.0,0.0,45,0.00,,---,0.00,VWS V14.00,2013-07-03 23:50:00,
2013-07-03 18:53:00,75.8,51.1,29.98,WNW,300,0.0,1.0,42,0.00,,---,0.00,VWS V14.00,2013-07-03 23:53:00,
2013-07-03 18:58:00,76.0,52.5,29.98,WNW,300,0.0,0.0,44,0.00,,---,0.00,VWS V14.00,2013-07-03 23:58:00,
2013-07-03 19:03:00,76.1,53.2,29.98,WNW,300,0.0,0.0,45,0.00,,---,0.00,VWS V14.00,2013-07-04 00:03:00,
2013-07-03 19:08:00,76.0,54.9,29.98,WNW,300,0.0,0.0,48,0.00,,---,0.00,VWS V14.00,2013-07-04 00:08:00,
2013-07-03 19:13:00,75.4,54.4,29.98,WNW,300,0.0,0.0,48,0.00,,---,0.00,VWS V14.00,2013-07-04 00:13:00,
2013-07-03 19:18:00,74.9,55.0,29.98,WNW,300,0.0,0.0,50,0.00,,---,0.00,VWS V14.00,2013-07-04 00:18:00,
2013-07-03 19:23:00,74.6,55.3,29.98,WNW,300,0.0,0.0,51,0.00,,---,0.00,VWS V14.00,2013-07-04 00:23:00,
2013-07-03 19:29:00,74.0,55.8,29.98,WNW,300,0.0,0.0,53,0.00,,---,0.00,VWS V14.00,2013-07-04 00:29:00,
2013-07-03 19:34:00,73.9,55.7,29.98,WNW,300,0.0,0.0,53,0.00,,---,0.00,VWS V14.00,2013-07-04 00:34:00,
2013-07-03 19:39:00,73.5,56.4,29.98,WNW,300,0.0,0.0,55,0.00,,---,0.00,VWS V14.00,2013-07-04 00:39:00,
2013-07-03 19:44:00,73.3,57.7,29.98,WNW,300,0.0,0.0,58,0.00,,---,0.00,VWS V14.00,2013-07-04 00:44:00,
2013-07-03 19:49:00,73.2,57.5,29.98,WNW,300,0.0,0.0,58,0.00,,---,0.00,VWS V14.00,2013-07-04 00:49:00,
2013-07-03 19:54:00,72.8,57.2,29.99,WNW,300,0.0,0.0,58,0.00,,---,0.00,VWS V14.00,2013-07-04 00:54:00,
2013-07-03 19:59:00,72.0,56.0,29.99,WNW,300,0.0,0.0,57,0.00,,---,0.00,VWS V14.00,2013-07-04 00:59:00,
2013-07-03 20:04:00,71.5,56.0,29.99,WNW,300,0.0,0.0,58,0.00,,---,0.00,VWS V14.00,2013-07-04 01:04:00,
2013-07-03 20:09:00,70.9,55.9,29.99,WNW,300,0.0,0.0,59,0.00,,---,0.00,VWS V14.00,2013-07-04 01:09:00,
2013-07-03 20:15:00,70.4,57.2,29.99,WNW,300,0.0,0.0,63,0.00,,---,0.00,VWS V14.00,2013-07-04 01:15:00,
2013-07-03 20:20:00,69.8,56.7,29.99,WNW,300,0.0,0.0,63,0.00,,---,0.00,VWS V14.00,2013-07-04 01:20:00,
2013-07-03 20:25:00,69.3,56.2,30.00,WNW,300,0.0,0.0,63,0.00,,---,0.00,VWS V14.00,2013-07-04 01:25:00,
2013-07-03 20:30:00,68.8,55.3,30.00,WNW,300,0.0,0.0,62,0.00,,---,0.00,VWS V14.00,2013-07-04 01:30:00,
2013-07-03 20:36:00,68.4,55.8,30.00,WNW,300,0.0,0.0,64,0.00,,---,0.00,VWS V14.00,2013-07-04 01:36:00,
2013-07-03 20:41:00,67.9,55.3,30.00,WNW,300,0.0,0.0,64,0.00,,---,0.00,VWS V14.00,2013-07-04 01:41:00,
2013-07-03 20:46:00,67.4,54.8,30.00,WNW,300,0.0,0.0,64,0.00,,---,0.00,VWS V14.00,2013-07-04 01:46:00,
2013-07-03 20:51:00,67.3,55.6,30.00,WNW,300,0.0,0.0,66,0.00,,---,0.00,VWS V14.00,2013-07-04 01:51:00,
2013-07-03 20:56:00,66.9,55.6,30.00,WNW,300,0.0,0.0,67,0.00,,---,0.00,VWS V14.00,2013-07-04 01:56:00,
2013-07-03 21:01:00,66.4,55.5,30.00,WNW,300,0.0,0.0,68,0.00,,---,0.00,VWS V14.00,2013-07-04 02:01:00,
2013-07-03 21:06:00,66.1,56.0,30.00,WNW,300,0.0,0.0,70,0.00,,---,0.00,VWS V14.00,2013-07-04 02:06:00,
2013-07-03 21:12:00,65.6,56.0,30.01,WNW,300,0.0,0.0,71,0.00,,---,0.00,VWS V14.00,2013-07-04 02:12:00,
2013-07-03 21:17:00,65.2,55.6,30.01,WNW,300,0.0,0.0,71,0.00,,---,0.00,VWS V14.00,2013-07-04 02:17:00,
2013-07-03 21:22:00,65.0,55.8,30.01,WNW,300,0.0,0.0,72,0.00,,---,0.00,VWS V14.00,2013-07-04 02:22:00,
2013-07-03 21:27:00,64.8,56.0,30.02,WNW,300,0.0,0.0,73,0.00,,---,0.00,VWS V14.00,2013-07-04 02:27:00,
2013-07-03 21:32:00,64.5,56.0,30.02,WNW,300,0.0,0.0,74,0.00,,---,0.00,VWS V14.00,2013-07-04 02:32:00,
2013-07-03 21:38:00,64.3,55.8,30.02,WNW,300,0.0,0.0,74,0.00,,---,0.00,VWS V14.00,2013-07-04 02:38:00,
2013-07-03 21:43:00,64.0,55.6,30.02,WNW,300,0.0,0.0,74,0.00,,---,0.00,VWS V14.00,2013-07-04 02:43:00,
2013-07-03 21:48:00,64.0,55.6,30.02,WNW,300,0.0,0.0,74,0.00,,---,0.00,VWS V14.00,2013-07-04 02:48:00,
2013-07-03 21:53:00,64.0,55.6,30.02,WNW,300,0.0,0.0,74,0.00,,---,0.00,VWS V14.00,2013-07-04 02:53:00,
2013-07-03 21:58:00,64.0,55.6,30.02,WNW,300,0.0,0.0,74,0.00,,---,0.00,VWS V14.00,2013-07-04 02:58:00,
2013-07-03 22:03:00,64.2,55.4,30.02,WNW,300,0.0,0.0,73,0.00,,---,0.00,VWS V14.00,2013-07-04 03:03:00,
2013-07-03 22:08:00,64.3,55.1,30.02,WNW,300,0.0,0.0,72,0.00,,---,0.00,VWS V14.00,2013-07-04 03:08:00,
2013-07-03 22:13:00,64.3,55.1,30.02,WNW,300,0.0,0.0,72,0.00,,---,0.00,VWS V14.00,2013-07-04 03:13:00,
2013-07-03 22:18:00,64.2,55.0,30.02,WNW,300,0.0,0.0,72,0.00,,---,0.00,VWS V14.00,2013-07-04 03:18:00,
2013-07-03 22:23:00,64.0,55.2,30.02,WNW,300,0.0,0.0,73,0.00,,---,0.00,VWS V14.00,2013-07-04 03:23:00,
2013-07-03 22:29:00,63.7,54.9,30.02,WNW,300,0.0,0.0,73,0.00,,---,0.00,VWS V14.00,2013-07-04 03:29:00,
2013-07-03 22:34:00,63.5,54.7,30.02,WNW,300,0.0,0.0,73,0.00,,---,0.00,VWS V14.00,2013-07-04 03:34:00,
2013-07-03 22:40:00,63.2,54.8,30.02,WNW,300,0.0,0.0,74,0.00,,---,0.00,VWS V14.00,2013-07-04 03:40:00,
2013-07-03 22:46:00,63.1,54.7,30.02,WNW,300,0.0,0.0,74,0.00,,---,0.00,VWS V14.00,2013-07-04 03:46:00,
2013-07-03 22:51:00,62.9,54.5,30.02,WNW,300,0.0,0.0,74,0.00,,---,0.00,VWS V14.00,2013-07-04 03:51:00,
2013-07-03 22:56:00,62.6,54.6,30.03,WNW,300,0.0,0.0,75,0.00,,---,0.00,VWS V14.00,2013-07-04 03:56:00,
2013-07-03 23:01:00,62.4,54.4,30.03,WNW,300,0.0,0.0,75,0.00,,---,0.00,VWS V14.00,2013-07-04 04:01:00,
2013-07-03 23:02:00,62.4,54.4,30.03,WNW,300,0.0,0.0,75,0.00,,---,0.00,VWS V14.00,2013-07-04 04:02:00,
2013-07-03 23:07:00,62.3,54.7,30.03,WNW,300,0.0,0.0,76,0.00,,---,0.00,VWS V14.00,2013-07-04 04:07:00,
2013-07-03 23:12:00,62.1,54.5,30.03,WNW,300,0.0,0.0,76,0.00,,---,0.00,VWS V14.00,2013-07-04 04:12:00,
2013-07-03 23:17:00,62.0,54.7,30.03,WNW,300,0.0,0.0,77,0.00,,---,0.00,VWS V14.00,2013-07-04 04:17:00,
2013-07-03 23:22:00,61.6,54.3,30.03,WNW,300,0.0,0.0,77,0.00,,---,0.00,VWS V14.00,2013-07-04 04:22:00,
2013-07-03 23:27:00,61.6,54.7,30.03,WNW,300,0.0,0.0,78,0.00,,---,0.00,VWS V14.00,2013-07-04 04:27:00,
2013-07-03 23:32:00,61.5,54.6,30.03,WNW,300,0.0,0.0,78,0.00,,---,0.00,VWS V14.00,2013-07-04 04:32:00,
2013-07-03 23:37:00,61.5,54.6,30.03,WNW,300,0.0,0.0,78,0.00,,---,0.00,VWS V14.00,2013-07-04 04:37:00,
2013-07-03 23:43:00,61.5,54.6,30.03,WNW,300,0.0,0.0,78,0.00,,---,0.00,VWS V14.00,2013-07-04 04:43:00,
2013-07-03 23:48:00,61.3,54.7,30.03,WNW,300,0.0,0.0,79,0.00,,---,0.00,VWS V14.00,2013-07-04 04:48:00,
2013-07-03 23:53:00,61.3,54.7,30.03,WNW,300,0.0,0.0,79,0.00,,---,0.00,VWS V14.00,2013-07-04 04:53:00,
2013-07-03 23:58:00,61.2,55.0,30.03,WNW,300,0.0,0.0,80,0.00,,---,0.00,VWS V14.00,2013-07-04 04:58:00,